Location: Borz?cin
(51.1714°N, 19.6030°E)
Time: 08:10:32
(UTC+00:00)

COSMOS 2406 - Pass Details

Date: 19 May 2025
Orbit: 845 x 859 km, 71.0° (Epoch: 16 June)

Event Time Altitude Azimuth Distance (km) Brightness Sun altitude
Exits shadow 21:59:08 21° 213° (SSW) 1,800 4.5 -18.3°
Maximum altitude 22:03:00 82° 300° (WNW) 865 3.2 -18.4°
Drops below altitude 10° 22:08:45 10° 29° (NNE) 2,493 6.4 -18.6°
Sets 22:11:14 0° 30° (NNE) 3,435 7.2 -18.6°
